Terminal Aerodrome Forecast
Issued by NWS Milwaukee/Sullivan, WI

Home | Current Version | Previous Version | Text Only | Print | Product List | Glossary On
Versions: 1 2 3 4 5 6 7 8 9 10 11 12 13 14 15 16 17 18 19 20 21 22 23 24 25 26 27 28 29 30 31 32 33 34 35 36 37 38 39 40 41 42 43 44 45 46 47 48 49 50
000
FTUS43 KMKX 161739
TAFMKE
TAF
KMKE 161739Z 1618/1724 08008KT P6SM SCT015 BKN250
      TEMPO 1618/1620 BKN015
     FM162000 08008KT P6SM BKN008
     FM170000 08007KT P6SM OVC008
     FM172000 19005KT P6SM OVC008=

USA.gov is the U.S. government's official web portal to all federal, state and local government web resources and services.